FW1801 Weather Reports


time (UTC)temp
C
wind
direction
speed
KPH
gust
KPH
rain 1hr
cm
rain 24hr
cm
rain mn
cm
humidity
%
barometer
mb
20260505121507 15 117 1.6 8.0 0.05 0.05 0.05 79 1008.0
20260505120021 13 232 1.6 4.8 0.05 0.05 0.05 85 1008.0
20260505114504 13 165 3.2 4.8 0.05 0.05 0.05 85 1007.9
20260505113002 16 101 1.6 6.4 0.00 0.00 0.00 70 1008.4
20260505111557 16 150 1.6 8.0 0.00 0.00 0.00 67 1008.1
20260505101553 14 78 1.6 6.4 0.00 0.00 0.00 68 1007.5
20260505100051 15 200 0.0 4.8 0.00 0.00 0.00 67 1007.4
20260505094550 15 236 0.0 4.8 0.00 0.00 0.00 66 1007.1
20260505093052 15 214 0.0 3.2 0.00 0.00 0.00 65 1007.0
20260505091548 15 51 1.6 8.0 0.00 0.00 0.00 65 1006.9
20260505090050 15 341 0.0 11.3 0.00 0.00 0.00 65 1006.8
20260505084546 15 5 0.0 4.8 0.00 0.00 0.00 65 1006.7
20260505083049 15 201 0.0 4.8 0.00 0.00 0.00 64 1006.7
20260505081543 15 76 0.0 4.8 0.00 0.00 0.00 64 1006.8
20260505080042 15 16 0.0 3.2 0.00 0.00 0.00 63 1006.9
20260505074541 15 11 1.6 3.2 0.00 0.00 0.00 62 1007.0
20260505073057 15 11 0.0 4.8 0.00 0.00 0.00 61 1007.0
20260505071537 15 140 1.6 4.8 0.00 0.00 0.00 60 1007.1
20260505070037 16 59 0.0 6.4 0.00 0.00 0.00 59 1007.1
20260505064541 16 157 1.6 14.5 0.00 0.00 0.00 58 1007.2
20260505063037 16 38 1.6 8.0 0.00 0.00 0.00 57 1007.3
20260505061547 16 196 1.6 11.3 0.00 0.00 0.00 57 1007.3
20260505060035 16 199 0.0 6.4 0.00 0.00 0.00 58 1007.2
20260505054556 16 156 1.6 11.3 0.00 0.00 0.00 58 1007.3
20260505053034 15 211 1.6 6.4 0.00 0.00 0.00 59 1007.5
20260505051530 16 223 0.0 1.6 0.00 0.00 0.00 58 1007.4
20260505041521 16 144 0.0 12.9 0.00 0.00 0.00 57 1007.1
20260505040020 16 167 0.0 8.0 0.00 0.00 0.00 57 1007.3
20260505034519 16 98 0.0 8.0 0.00 0.00 0.00 57 1007.2
20260505033021 16 19 0.0 4.8 0.00 0.00 0.00 56 1007.3
20260505031536 16 88 1.6 4.8 0.00 0.00 0.00 55 1007.4
20260505030016 16 171 1.6 6.4 0.00 0.00 0.00 54 1007.3
20260505024529 16 164 0.0 4.8 0.00 0.00 0.00 54 1007.6
20260505023015 16 194 3.2 9.7 0.00 0.00 0.00 53 1007.6
20260505021518 17 168 1.6 6.4 0.00 0.00 0.00 52 1007.8
20260505020025 17 168 1.6 8.0 0.00 0.00 0.00 51 1007.8
20260505014512 17 155 1.6 9.7 0.00 0.00 0.00 50 1007.7
20260505013013 17 223 1.6 4.8 0.00 0.00 0.00 51 1007.5
20260505011514 17 195 0.0 4.8 0.00 0.00 0.00 51 1007.4
20260505010011 17 195 1.6 4.8 0.00 0.00 0.00 50 1007.3
20260505004524 18 195 0.0 4.8 0.00 0.00 0.00 48 1007.3
20260505003010 18 165 1.6 8.0 0.00 0.00 0.00 47 1007.2
20260505001509 18 165 1.6 9.7 0.00 0.00 0.00 46 1007.0
20260505000011 19 194 1.6 6.4 0.00 0.00 0.00 45 1006.8
20260504234508 19 169 1.6 11.3 0.00 0.00 0.00 44 1006.9
20260504233008 20 212 1.6 8.0 0.00 0.00 0.00 42 1006.6
20260504231506 20 94 4.8 14.5 0.00 0.00 0.00 41 1006.6
20260504230007 20 184 1.6 8.0 0.00 0.00 0.00 40 1006.5
20260504224508 21 220 3.2 12.9 0.00 0.00 0.00 38 1006.5
20260504223007 22 188 3.2 11.3 0.00 0.00 0.00 38 1006.5
20260504221508 22 159 4.8 12.9 0.00 0.00 0.00 37 1006.6
20260504220003 23 146 4.8 16.1 0.00 0.00 0.00 36 1006.5
20260504214502 23 219 3.2 11.3 0.00 0.00 0.00 36 1006.5
20260504213001 22 204 4.8 11.3 0.00 0.00 0.00 37 1006.5
20260504211612 22 198 6.4 14.5 0.00 0.00 0.00 35 1006.6
20260504210056 23 178 1.6 12.9 0.00 0.00 0.00 38 1006.8
20260504204600 22 174 3.2 11.3 0.00 0.00 0.00 37 1006.9
20260504203100 22 132 4.8 17.7 0.00 0.00 0.00 38 1007.3
20260504201547 21 173 9.7 19.3 0.00 0.00 0.00 37 1007.6
20260504200045 21 157 4.8 17.7 0.00 0.00 0.00 39 1007.9
20260504194544 21 195 8.0 17.7 0.00 0.00 0.00 38 1007.9
20260504193043 21 254 3.2 16.1 0.00 0.00 0.00 37 1007.9
20260504191542 21 225 8.0 19.3 0.00 0.00 0.00 37 1008.2
20260504190039 21 229 6.4 19.3 0.00 0.00 0.00 39 1008.4
20260504184537 20 159 6.4 16.1 0.00 0.00 0.00 40 1008.7
20260504183036 20 150 4.8 20.9 0.00 0.00 0.00 41 1008.8
20260504181535 20 228 8.0 25.7 0.00 0.00 0.00 40 1008.8
20260504180036 20 155 11.3 22.5 0.00 0.00 0.00 40 1009.1
20260504174534 20 277 9.7 27.4 0.00 0.00 0.00 40 1009.0
20260504173034 20 274 9.7 20.9 0.00 0.00 0.00 40 1009.3
20260504171529 19 260 6.4 20.9 0.00 0.00 0.00 41 1009.3